Weather History for K4A6 - September, 2012

Change the Weather History Date:

Wednesday, September 5, 2012

  Actual Average (KHSV) Record (KHSV)
Temperature  
Mean Temperature 80 °F 77 °F  
Max Temperature 87 °F 89 °F 107 °F (1925)
Min Temperature 73 °F 66 °F 51 °F (1934)
Degree Days  
Heating Degree Days 0 0  
Month to date heating degree days 0  
Since 1 July heating degree days 0  
Cooling Degree Days 15 12  
Month to date cooling degree days 64  
Year to date cooling degree days 1659  
Growing Degree Days 30 (Base 50)    
Moisture  
Dew Point 72 °F    
Average Humidity 82    
Maximum Humidity 100    
Minimum Humidity 58    
Precipitation  
Precipitation 0.00 in 0.11 in 4.42 in (2011)
Month to date precipitation 0.55  
Year to date precipitation 36.87  
Snow  
Snow 0.00 in - - ()
Month to date snowfall  
Since 1 July snowfall  
Since 1 September snowfall  
Snow Depth -    
Sea Level Pressure  
Sea Level Pressure 29.92 in    
Wind  
Wind Speed 2 mph (SW)    
Max Wind Speed 9 mph    
Max Gust Speed 18 mph    
Visibility 8 miles    
Events Rain    
T = Trace of Precipitation, MM = Missing Value Source: NWS Daily Summary

Daily Weather History Graph

Daily Weather History Graph

Search for Another Location

Airport or City:

Trip Planner

Search our weather history database for the weather conditions in past years. The results will help you decide how hot, cold, wet, or windy it might be!

Date:

Astronomy

Sep. 05, 2012 Rise Set
Actual Time 6:20 AM CDT 7:04 PM CDT
Civil Twilight 5:54 AM CDT 7:29 PM CDT
Nautical Twilight 5:24 AM CDT 7:59 PM CDT
Astronomical Twilight 4:53 AM CDT 8:30 PM CDT
Moon 9:49 PM CDT (9/5) 11:08 AM CDT (9/5)
Length of Visible Light 13h 35m
Length of Day
12h 43m
Waning Gibbous, 76% of the Moon is Illuminated
Sep 5
Waning Gibbous
Sep 8
Last Quarter
Sep 15
New
Sep 22
First Quarter
Sep 29
Full

Hourly Weather History & Observations

Time (CDT) Temp. Heat Index Dew Point Humidity Pressure Visibility Wind Dir Wind Speed Gust Speed Precip Events Conditions
12:15 AM 75.2 °F - 73.4 °F 94% 29.91 in 3.0 mi Calm Calm - N/A   Overcast
12:35 AM 75.2 °F - 73.4 °F 94% 29.91 in 3.0 mi Calm Calm - N/A   Overcast
12:55 AM 75.2 °F - 73.4 °F 94% 29.91 in 3.0 mi Calm Calm - N/A   Overcast
1:15 AM 75.2 °F - 73.4 °F 94% 29.91 in 4.0 mi Calm Calm - N/A   Overcast
1:35 AM 75.2 °F - 73.4 °F 94% 29.91 in 5.0 mi Calm Calm - N/A   Overcast
1:55 AM 75.2 °F - 73.4 °F 94% 29.90 in 5.0 mi Calm Calm - N/A   Overcast
2:15 AM 75.2 °F - 73.4 °F 94% 29.90 in 5.0 mi Calm Calm - N/A   Overcast
2:35 AM 75.2 °F - 73.4 °F 94% 29.91 in 5.0 mi Calm Calm - N/A   Overcast
2:55 AM 75.2 °F - 73.4 °F 94% 29.91 in 5.0 mi Calm Calm - N/A   Overcast
3:15 AM 75.2 °F - 73.4 °F 94% 29.91 in 6.0 mi Calm Calm - N/A   Mostly Cloudy
3:35 AM 75.2 °F - 73.4 °F 94% 29.91 in 8.0 mi Calm Calm - N/A   Mostly Cloudy
3:55 AM 75.2 °F - 73.4 °F 94% 29.91 in 5.0 mi Calm Calm - N/A   Overcast
4:15 AM 75.2 °F - 73.4 °F 94% 29.91 in 5.0 mi Calm Calm - N/A   Mostly Cloudy
4:35 AM 75.2 °F - 73.4 °F 94% 29.91 in 5.0 mi Calm Calm - N/A   Mostly Cloudy
4:55 AM 75.2 °F - 73.4 °F 94% 29.92 in 5.0 mi Calm Calm - N/A   Mostly Cloudy
5:15 AM 75.2 °F - 73.4 °F 94% 29.92 in 7.0 mi SW 3.5 mph - N/A   Mostly Cloudy
5:35 AM 75.2 °F - 73.4 °F 94% 29.92 in 8.0 mi Calm Calm - N/A   Overcast
5:55 AM 75.2 °F - 73.4 °F 94% 29.93 in 8.0 mi Calm Calm - N/A   Overcast
6:15 AM 75.2 °F - 73.4 °F 94% 29.94 in 7.0 mi Calm Calm - N/A   Overcast
6:35 AM 73.4 °F - 73.4 °F 100% 29.95 in 4.0 mi Calm Calm - N/A   Overcast
6:55 AM 75.2 °F - 73.4 °F 94% 29.95 in 5.0 mi Calm Calm - N/A   Mostly Cloudy
7:15 AM 75.2 °F - 73.4 °F 94% 29.95 in 4.0 mi Calm Calm - N/A   Overcast
7:35 AM 75.2 °F - 73.4 °F 94% 29.95 in 5.0 mi Calm Calm - N/A   Overcast
7:55 AM 75.2 °F - 73.4 °F 94% 29.95 in 8.0 mi Calm Calm - N/A   Overcast
8:15 AM 75.2 °F - 71.6 °F 89% 29.95 in 10.0 mi Calm Calm - N/A   Mostly Cloudy
8:35 AM 75.2 °F - 71.6 °F 89% 29.95 in 10.0 mi Calm Calm - N/A   Overcast
8:55 AM 77.0 °F - 71.6 °F 83% 29.96 in 10.0 mi SSW 4.6 mph - N/A   Overcast
9:15 AM 77.0 °F - 71.6 °F 83% 29.96 in 10.0 mi WSW 3.5 mph - N/A   Overcast
9:35 AM 78.8 °F - 71.6 °F 78% 29.96 in 10.0 mi West 5.8 mph - N/A Rain Light Rain
9:55 AM 78.8 °F - 71.6 °F 78% 29.97 in 10.0 mi WSW 5.8 mph - N/A   Overcast
10:15 AM 78.8 °F - 71.6 °F 78% 29.97 in 10.0 mi South 3.5 mph - N/A   Overcast
10:35 AM 80.6 °F 84.6 °F 71.6 °F 74% 29.97 in 10.0 mi SSE 5.8 mph - N/A   Mostly Cloudy
10:55 AM 80.6 °F 84.6 °F 71.6 °F 74% 29.96 in 10.0 mi SSW 8.1 mph - N/A   Mostly Cloudy
11:15 AM 80.6 °F 84.6 °F 71.6 °F 74% 29.96 in 10.0 mi SSW 3.5 mph - N/A   Mostly Cloudy
11:35 AM 82.4 °F 87.2 °F 71.6 °F 70% 29.95 in 10.0 mi WSW 5.8 mph - N/A   Scattered Clouds
11:55 AM 82.4 °F 87.2 °F 71.6 °F 70% 29.95 in 10.0 mi South 3.5 mph - N/A   Mostly Cloudy
12:15 PM 82.4 °F 87.2 °F 71.6 °F 70% 29.94 in 10.0 mi West 4.6 mph - N/A   Mostly Cloudy
1:15 PM 84.2 °F 89.6 °F 71.6 °F 66% 29.93 in 10.0 mi SW 4.6 mph - N/A   Mostly Cloudy
1:35 PM 84.2 °F 89.6 °F 71.6 °F 66% 29.91 in 10.0 mi WSW 6.9 mph - N/A   Mostly Cloudy
1:55 PM 84.2 °F 89.6 °F 71.6 °F 66% 29.91 in 10.0 mi WSW 6.9 mph - N/A   Mostly Cloudy
2:15 PM 86.0 °F 91.8 °F 71.6 °F 62% 29.90 in 10.0 mi SSW 5.8 mph - N/A   Partly Cloudy
2:35 PM 86.0 °F 91.8 °F 71.6 °F 62% 29.90 in 10.0 mi WSW 9.2 mph - N/A   Partly Cloudy
2:55 PM 86.0 °F 91.8 °F 71.6 °F 62% 29.89 in 10.0 mi WSW 9.2 mph - N/A   Partly Cloudy
3:15 PM 87.8 °F 93.8 °F 71.6 °F 58% 29.89 in 10.0 mi West 9.2 mph - N/A   Partly Cloudy
3:35 PM 86.0 °F 91.8 °F 71.6 °F 62% 29.89 in 10.0 mi WSW 8.1 mph - N/A   Partly Cloudy
3:55 PM 86.0 °F 91.8 °F 71.6 °F 62% 29.88 in 10.0 mi SSW 4.6 mph - N/A   Partly Cloudy
4:15 PM 86.0 °F 91.8 °F 71.6 °F 62% 29.88 in 10.0 mi SSW 5.8 mph - N/A   Clear
4:35 PM 86.0 °F 91.8 °F 71.6 °F 62% 29.88 in 10.0 mi SW 8.1 mph - N/A   Clear
4:55 PM 86.0 °F 91.8 °F 71.6 °F 62% 29.87 in 10.0 mi WSW 6.9 mph - N/A   Clear
5:15 PM 86.0 °F 91.8 °F 71.6 °F 62% 29.86 in 10.0 mi WSW 5.8 mph - N/A   Clear
5:35 PM 86.0 °F 91.8 °F 71.6 °F 62% 29.86 in 10.0 mi WSW 6.9 mph - N/A   Clear
5:55 PM 84.2 °F 89.6 °F 71.6 °F 66% 29.87 in 10.0 mi WSW 5.8 mph - N/A   Clear
6:15 PM 84.2 °F 89.6 °F 71.6 °F 66% 29.87 in 10.0 mi West 3.5 mph - N/A   Clear
6:35 PM 82.4 °F 88.2 °F 73.4 °F 74% 29.87 in 10.0 mi Calm Calm - N/A   Clear
6:55 PM 80.6 °F 85.4 °F 73.4 °F 79% 29.88 in 10.0 mi West 3.5 mph - N/A   Clear
7:15 PM 78.8 °F - 73.4 °F 83% 29.87 in 10.0 mi Calm Calm - N/A   Clear
7:35 PM 77.0 °F - 73.4 °F 89% 29.88 in 10.0 mi Calm Calm - N/A   Clear
7:55 PM 77.0 °F - 73.4 °F 89% 29.90 in 10.0 mi Calm Calm - N/A   Clear
8:15 PM 75.2 °F - 73.4 °F 94% 29.91 in 10.0 mi Calm Calm - N/A   Clear
8:35 PM 75.2 °F - 73.4 °F 94% 29.91 in 10.0 mi Calm Calm - N/A   Clear
8:55 PM 75.2 °F - 73.4 °F 94% 29.92 in 10.0 mi Calm Calm - N/A   Clear
9:15 PM 75.2 °F - 71.6 °F 89% 29.93 in 10.0 mi Calm Calm - N/A   Clear
9:55 PM 75.2 °F - 73.4 °F 94% 29.95 in 10.0 mi NNE 4.6 mph - N/A   Mostly Cloudy
10:15 PM 75.2 °F - 71.6 °F 89% 29.98 in 10.0 mi North 6.9 mph 18.4 mph N/A   Overcast
10:35 PM 77.0 °F - 68.0 °F 74% 29.98 in 10.0 mi ENE 4.6 mph - N/A   Overcast
11:15 PM 73.4 °F - 66.2 °F 78% 29.98 in 10.0 mi ENE 4.6 mph - N/A   Overcast
11:35 PM 73.4 °F - 66.2 °F 78% 29.97 in 10.0 mi NE 3.5 mph - N/A   Overcast
11:55 PM 73.4 °F - 66.2 °F 78% 29.96 in 10.0 mi WSW 3.5 mph - N/A   Overcast